OPS 4682 DEB, 38392

Orbit data source: Space-Track

OPS 4682 DEB, 38392 is space debris in LEO originally from a launch on Sat, 03 Apr 1965 UTC launched from the Air Force Western Test Range (AFWTR). Debris objects in space refer to the collection of defunct objects orbiting the Earth. Examples of debris include non-operational satellites, rocket bodies, and fragments generated from explosions, collisions, or faulty payload assembly.

Loading next visibility...
Identifier
38392, 1965-027CV
Orbit
LEO
Country
Flag of USUS
Related business
Manufacturer
Unknown
Mission
Spacecraft
Bus & Motor
Unknown
Mass
Unknown
Launch date (UTC)
1965-04-03 (61 years ago)
Launch vehicle
Unknown
Launch site
Air Force Western Test Range (AFWTR)
Object type
Payload
Rocket body
Debris
Shape & HBR
Unknown shape, 0.1 m
Radar Cross Section
Medium (>0.1 m² and <1 m²)

Expand to show TLE details & history
Last TLE update: 2 days ago

TLE from 2 days ago
0 OPS 4682 DEB
1 38392U 65027CV  26262.07788613  .00000461  00000-0  16089-2 0  9990
2 38392  90.2569  15.5556 0028251 280.3628  79.4307 12.95352000623291
Epoch: 2026-09-19T01:52Z
TLE epoch observation values (Epoch: 2026-09-19T01:52:09.361Z)
Latitude
-0.00006°
Longitude
-10.47499°
Altitude
1,279.319 km
Speed
7.218 km/s
True Right ascension
01h 02m 13s
True Declination
0° 00' 00"
Sunlit
Object was in full shadow at epoch
Visualization orbit readout
Latitude
Unknown
Longitude
Unknown
Altitude
Unknown
Speed
Unknown
Apparent Right ascension
Unknown
Apparent Declination
Unknown
Sunlit
N/A
Visualization observer readout
Local Sidereal Time
10:57:32
Azimuth
Unknown
Elevation
Unknown
Doppler factor
Unknown
Orbital elements
Apogee altitude
1,299.114 km
Perigee altitude
1,255.858 km
Semi-major axis
7,655.623 km
Eccentricity
0.00283
Inclination
90.2569°
RAAN
15.5556°
Arg. of periapsis
280.3628°
True anomaly
79.74914°
Mean anomaly
79.4307°
Eccentric anomaly
79.5899°
Mean motion
3.2402 °/min
Orbital period
111.1 mins
BSTAR
0.0016089
Loading maneuver chart data...
Computing Atmospheric mass density...
Loading historical data...
Loading historical data...
Loading historical data...
Loading historical data...
Loading historical data...
Loading historical data...
Loading historical data...

Documentation

Showing up to 5 results
|